Hazen, ND

3:42 PM CDT on May 29, 2017 (GMT -0500)
Mercer County Regional

Weather History for KHZE - April, 2014

Change the Weather History Date:

Friday, April 25, 2014

  Actual Average (KN60) Record (KN60)
Temperature  
Mean Temperature 47 °F -  
Max Temperature 66 °F 58 °F 78 °F (2001)
Min Temperature 28 °F 33 °F 19 °F (2002)
Degree Days  
Heating Degree Days 18    
Moisture  
Dew Point 30 °F    
Average Humidity 53    
Maximum Humidity 87    
Minimum Humidity 23    
Precipitation  
Precipitation 0.00 in - - ()
Sea Level Pressure  
Sea Level Pressure 29.76 in    
Wind  
Wind Speed 6 mph (WSW)    
Max Wind Speed 16 mph    
Max Gust Speed 25 mph    
Visibility 10 miles    
Events      
Averages and records for this station are not official NWS values.
T = Trace of Precipitation, MM = Missing Value Source: NWS Daily Summary

Daily Weather History Graph

Daily Weather History Graph

Search for Another Location

Airport or City:

Trip Planner

Search our weather history database for the weather conditions in past years. The results will help you decide how hot, cold, wet, or windy it might be!

Date:

Astronomy

Apr. 25, 2014 Rise Set
Actual Time 6:39 AM CDT 8:49 PM CDT
Civil Twilight 6:06 AM CDT 9:22 PM CDT
Nautical Twilight 5:25 AM CDT 10:04 PM CDT
Astronomical Twilight 4:39 AM CDT 10:51 PM CDT
Moon 4:45 AM CDT (4/25) 4:59 PM CDT (4/25)
Length of Visible Light 15h 16m
Length of Day
14h 09m
Waning Crescent, 15% of the Moon is Illuminated
Apr 25
Waning Crescent
Apr 29
New
May 6
First Quarter
May 14
Full
May 21
Last Quarter

Hourly Weather History & Observations

Time (CDT) Temp. Windchill Dew Point Humidity Pressure Visibility Wind Dir Wind Speed Gust Speed Precip Events Conditions
12:15 AM 33.8 °F 30.8 °F 26.6 °F 75% 29.74 in 10.0 mi SSW 3.5 mph - N/A   Clear
12:35 AM 32.0 °F 28.7 °F 26.6 °F 80% 29.74 in 10.0 mi SW 3.5 mph - N/A   Partly Cloudy
12:55 AM 30.2 °F - 24.8 °F 80% 29.74 in 10.0 mi Calm Calm - N/A   Mostly Cloudy
1:15 AM 30.2 °F - 24.8 °F 80% 29.75 in 10.0 mi Calm Calm - N/A   Overcast
1:35 AM 30.2 °F - 24.8 °F 80% 29.75 in 10.0 mi Calm Calm - N/A   Overcast
1:55 AM 28.4 °F 23.3 °F 24.8 °F 86% 29.75 in 10.0 mi WSW 4.6 mph - N/A   Partly Cloudy
2:15 AM 30.2 °F 25.4 °F 24.8 °F 80% 29.75 in 10.0 mi West 4.6 mph - N/A   Scattered Clouds
2:35 AM 30.2 °F - 24.8 °F 80% 29.74 in 10.0 mi Calm Calm - N/A   Mostly Cloudy
2:55 AM 32.0 °F 28.7 °F 24.8 °F 75% 29.74 in 10.0 mi SSW 3.5 mph - N/A   Mostly Cloudy
3:15 AM 30.2 °F 23.4 °F 26.6 °F 86% 29.75 in 10.0 mi WSW 6.9 mph - N/A   Mostly Cloudy
3:35 AM 30.2 °F 25.4 °F 26.6 °F 86% 29.75 in 10.0 mi WSW 4.6 mph - N/A   Scattered Clouds
3:55 AM 28.4 °F 23.3 °F 24.8 °F 86% 29.74 in 10.0 mi South 4.6 mph - N/A   Overcast
4:15 AM 30.2 °F 25.4 °F 26.6 °F 86% 29.75 in 10.0 mi WSW 4.6 mph - N/A   Overcast
4:35 AM 30.2 °F - 26.6 °F 86% 29.75 in 10.0 mi Calm Calm - N/A   Overcast
4:55 AM 32.0 °F - 26.6 °F 80% 29.75 in 10.0 mi Calm Calm - N/A   Overcast
5:15 AM 32.0 °F - 26.6 °F 80% 29.75 in 10.0 mi Calm Calm - N/A   Overcast
5:35 AM 32.0 °F 27.5 °F 28.4 °F 87% 29.75 in 10.0 mi WSW 4.6 mph - N/A   Overcast
5:55 AM 33.8 °F 28.6 °F 28.4 °F 81% 29.75 in 10.0 mi WSW 5.8 mph - N/A   Overcast
6:15 AM 35.6 °F 30.7 °F 28.4 °F 75% 29.75 in 10.0 mi WSW 5.8 mph - N/A   Overcast
6:35 AM 35.6 °F 29.2 °F 28.4 °F 75% 29.75 in 10.0 mi SW 8.1 mph - N/A   Overcast
6:55 AM 37.4 °F 32.8 °F 30.2 °F 75% 29.76 in 10.0 mi SW 5.8 mph - N/A   Overcast
7:15 AM 35.6 °F 30.7 °F 30.2 °F 81% 29.76 in 10.0 mi SW 5.8 mph - N/A   Overcast
7:35 AM 37.4 °F 33.8 °F 32.0 °F 81% 29.76 in 10.0 mi SW 4.6 mph - N/A   Mostly Cloudy
7:55 AM 39.2 °F 35.0 °F 32.0 °F 75% 29.76 in 10.0 mi SW 5.8 mph - N/A   Partly Cloudy
8:15 AM 41.0 °F 37.1 °F 32.0 °F 70% 29.77 in 10.0 mi WSW 5.8 mph - N/A   Clear
8:35 AM 46.4 °F 41.9 °F 32.0 °F 57% 29.76 in 10.0 mi WSW 9.2 mph - N/A   Clear
8:55 AM 48.2 °F - 33.8 °F 58% 29.77 in 10.0 mi WSW 11.5 mph - N/A   Clear
9:15 AM 50.0 °F - 35.6 °F 58% 29.77 in 10.0 mi WSW 9.2 mph - N/A   Clear
9:35 AM 53.6 °F - 35.6 °F 51% 29.77 in 10.0 mi West 9.2 mph - N/A   Clear
9:55 AM 55.4 °F - 35.6 °F 47% 29.77 in 10.0 mi WSW 6.9 mph - N/A   Clear
10:15 AM 57.2 °F - 33.8 °F 41% 29.77 in 10.0 mi West 8.1 mph - N/A   Clear
10:35 AM 59.0 °F - 32.0 °F 36% 29.77 in 10.0 mi NW 10.4 mph - N/A   Clear
10:55 AM 59.0 °F - 32.0 °F 36% 29.77 in 10.0 mi NW 8.1 mph - N/A   Clear
11:15 AM 60.8 °F - 32.0 °F 34% 29.77 in 10.0 mi NW 12.7 mph 19.6 mph N/A   Clear
11:35 AM 62.6 °F - 32.0 °F 32% 29.77 in 10.0 mi NW 11.5 mph 18.4 mph N/A   Clear
11:55 AM 62.6 °F - 32.0 °F 32% 29.78 in 10.0 mi NNW 11.5 mph - N/A   Clear
12:15 PM 62.6 °F - 30.2 °F 30% 29.79 in 10.0 mi NW 11.5 mph 18.4 mph N/A   Clear
12:35 PM 62.6 °F - 30.2 °F 30% 29.78 in 10.0 mi NW 5.8 mph - N/A   Clear
12:55 PM 64.4 °F - 30.2 °F 28% 29.78 in 10.0 mi NNW 10.4 mph 20.7 mph N/A   Clear
1:15 PM 62.6 °F - 30.2 °F 30% 29.77 in 10.0 mi North 6.9 mph - N/A   Clear
1:35 PM 64.4 °F - 28.4 °F 26% 29.77 in 10.0 mi WNW 6.9 mph - N/A   Clear
1:55 PM 64.4 °F - 28.4 °F 26% 29.76 in 10.0 mi NE 4.6 mph - N/A   Clear
2:15 PM 64.4 °F - 28.4 °F 26% 29.76 in 10.0 mi NE 8.1 mph - N/A   Clear
2:35 PM 64.4 °F - 26.6 °F 24% 29.75 in 10.0 mi East 5.8 mph - N/A   Clear
2:55 PM 66.2 °F - 28.4 °F 24% 29.75 in 10.0 mi North 10.4 mph 23.0 mph N/A   Partly Cloudy
3:15 PM 62.6 °F - 26.6 °F 26% 29.75 in 10.0 mi NNW 8.1 mph - N/A   Clear
3:35 PM 64.4 °F - 26.6 °F 24% 29.75 in 10.0 mi NW 6.9 mph - N/A   Clear
3:55 PM 66.2 °F - 26.6 °F 23% 29.75 in 10.0 mi SW 5.8 mph - N/A   Clear
4:15 PM 66.2 °F - 28.4 °F 24% 29.75 in 10.0 mi Calm Calm - N/A   Clear
4:35 PM 66.2 °F - 26.6 °F 23% 29.75 in 10.0 mi Calm Calm - N/A   Partly Cloudy
4:55 PM 66.2 °F - 26.6 °F 23% 29.75 in 10.0 mi ESE 3.5 mph - N/A   Clear
5:15 PM 66.2 °F - 26.6 °F 23% 29.74 in 10.0 mi ENE 4.6 mph - N/A   Clear
5:35 PM 66.2 °F - 26.6 °F 23% 29.74 in 10.0 mi East 8.1 mph - N/A   Scattered Clouds
5:55 PM 66.2 °F - 26.6 °F 23% 29.74 in 10.0 mi East 8.1 mph - N/A   Mostly Cloudy
6:15 PM 66.2 °F - 26.6 °F 23% 29.74 in 10.0 mi East 10.4 mph - N/A   Mostly Cloudy
6:35 PM 64.4 °F - 26.6 °F 24% 29.74 in 10.0 mi ENE 5.8 mph - N/A   Clear
6:55 PM 64.4 °F - 26.6 °F 24% 29.75 in 10.0 mi SE 5.8 mph - N/A   Scattered Clouds
7:15 PM 66.2 °F - 26.6 °F 23% 29.75 in 10.0 mi ESE 5.8 mph - N/A   Overcast
7:35 PM 64.4 °F - 26.6 °F 24% 29.75 in 10.0 mi East 12.7 mph 17.3 mph N/A   Overcast
7:55 PM 60.8 °F - 32.0 °F 34% 29.75 in 10.0 mi East 10.4 mph - N/A   Overcast
8:15 PM 57.2 °F - 35.6 °F 44% 29.76 in 10.0 mi East 10.4 mph - N/A   Overcast
8:35 PM 57.2 °F - 35.6 °F 44% 29.77 in 10.0 mi East 12.7 mph - N/A   Overcast
8:55 PM 55.4 °F - 37.4 °F 51% 29.77 in 10.0 mi East 16.1 mph 20.7 mph N/A   Overcast
9:15 PM 53.6 °F - 37.4 °F 54% 29.77 in 10.0 mi ESE 12.7 mph 25.3 mph N/A   Overcast
9:35 PM 53.6 °F - 37.4 °F 54% 29.78 in 10.0 mi East 11.5 mph 20.7 mph N/A   Mostly Cloudy
9:55 PM 50.0 °F - 37.4 °F 62% 29.79 in 10.0 mi East 11.5 mph - N/A   Partly Cloudy
10:15 PM 50.0 °F - 39.2 °F 66% 29.80 in 10.0 mi East 12.7 mph 19.6 mph N/A   Scattered Clouds
10:35 PM 48.2 °F - 39.2 °F 71% 29.81 in 10.0 mi East 13.8 mph 17.3 mph N/A   Overcast
10:55 PM 46.4 °F 41.5 °F 39.2 °F 76% 29.81 in 10.0 mi East 10.4 mph - N/A   Overcast
11:15 PM 46.4 °F 41.9 °F 37.4 °F 71% 29.81 in 10.0 mi East 9.2 mph - N/A   Mostly Cloudy
11:35 PM 44.6 °F 39.7 °F 37.4 °F 76% 29.81 in 10.0 mi East 9.2 mph - N/A   Partly Cloudy
11:55 PM 44.6 °F 40.2 °F 37.4 °F 76% 29.81 in 10.0 mi East 8.1 mph - N/A   Clear